#timestamp,LO_Frequency,Hit,StdDev 
1619640015.2,286047002.0,N
1619640035.0,286047002.0,N
1619640035.9,286047002.0,N
1619640055.8,286047002.6,N
1619640075.6,286047001.5,N
1619640095.5,286047002.0,N
1619640115.3,286047000.0,N
1619640135.1,286047002.2,N
1619640155.9,286047004.1,N
1619640175.7,286047005.4,N
1619640195.5,286047002.6,N
1619640215.4,286046998.3,N
1619640235.2,286046998.2,N
1619640255.1,286047000.8,N
1619640256.0,286047000.8,N
1619640275.8,286047000.9,N
1619640295.6,286047002.6,N
1619640315.5,286047000.6,N
1619640335.3,286047000.0,N
1619640355.1,286046998.1,N
1619640375.9,286047000.8,N
1619640395.7,286046999.4,N
1619640415.6,286046999.9,N
1619640435.4,286047000.4,N
1619640455.2,286046997.2,N
1619640475.1,286046996.7,N
1619640476.0,286046996.7,N
1619640495.8,286046999.0,N
1619640515.6,286047001.6,N
1619640535.5,286047002.3,N
1619640555.3,286046999.9,N
1619640575.2,286047002.4,N
1619640595.9,286047003.1,N
1619640615.7,286047002.4,N
1619640635.6,286047002.1,N
1619640655.4,286047003.2,N
1619640675.2,286047003.2,N
1619640695.1,286047003.3,N
1619640696.0,286047003.3,N
1619640715.8,286047006.7,Y
1619640735.7,286047004.4,P
1619640755.5,286047002.4,N
1619640775.3,286047002.7,N
1619640795.2,286047001.9,N
1619640815.0,286047001.6,N
1619640815.9,286047001.6,N
1619640835.8,286047002.3,N
1619640855.6,286046999.2,N
1619640875.4,286046997.4,N
1619640895.3,286046994.9,N
1619640915.1,286046998.5,N
1619640935.8,286047002.6,N
1619640955.7,286046999.0,N
1619640975.5,286046998.9,N
1619640995.3,286046996.6,N
1619641015.2,286046997.3,N
1619641035.0,286046997.4,N
1619641035.9,286046997.4,N
1619641055.8,286046994.9,N
1619641075.6,286046997.5,N
1619641095.4,286046995.7,N
1619641115.3,286046996.4,N
1619641135.1,286046995.3,N
1619641155.9,286046998.3,N
1619641175.7,286047002.8,N
1619641195.5,286047000.0,N
1619641215.4,286046998.9,N
1619641235.2,286047000.0,N
1619641255.0,286047000.1,N
1619641255.9,286047000.1,N
1619641275.8,286047004.2,N
1619641295.6,286047001.6,N
1619641315.5,286047001.2,N
1619641335.3,286046995.0,N
1619641355.1,286046996.9,N
1619641375.9,286046995.9,N
1619641395.7,286046995.4,N
1619641415.5,286046996.6,N
1619641435.4,286047001.1,N
1619641455.2,286047001.0,N
1619641475.0,286046997.3,N
1619641475.9,286046997.3,N
1619641495.8,286046996.5,N
1619641515.6,286046998.6,N
1619641535.5,286046998.2,N
1619641555.3,286046998.7,N
1619641575.1,286046999.3,N
1619641595.9,286047000.6,N
1619641615.7,286047004.0,N
1619641635.5,286047001.9,N
1619641655.4,286047000.4,N
1619641675.2,286046998.9,N
1619641695.1,286047002.8,N
1619641696.0,286047002.8,N
1619641715.8,286047003.8,N
1619641735.6,286047004.8,N
1619641755.5,286047003.9,N
1619641775.3,286047001.6,N
1619641795.1,286047004.4,N
1619641815.9,286047002.9,N
1619641835.7,286047004.2,N
1619641855.6,286047002.4,N
1619641875.4,286047005.4,N
1619641895.2,286047004.6,N
1619641915.1,286047005.5,N
1619641916.0,286047005.5,N
1619641935.8,286047005.0,N
1619641955.7,286047000.0,N
1619641975.5,286047002.8,N
1619641995.3,286047000.9,N
1619642015.2,286046998.1,N
1619642035.0,286046996.5,N
1619642035.9,286046996.5,N
1619642055.7,286046999.2,N
1619642075.6,286046996.2,N
1619642095.4,286046995.9,N
1619642115.3,286046995.7,N
1619642135.1,286046998.9,N
1619642155.8,286046999.9,N
1619642175.7,286047002.8,N
1619642195.5,286047000.5,N
1619642215.4,286046999.0,N
1619642235.2,286046996.7,N
1619642255.0,286047000.0,N
1619642255.9,286047000.0,N
1619642275.8,286047000.4,N
1619642295.6,286047003.8,N
1619642315.4,286047003.2,N
1619642335.3,286047003.5,N
1619642355.1,286047002.1,N
1619642375.9,286047002.7,N
1619642395.7,286047000.0,N
1619642415.5,286047000.1,N
1619642435.4,286047001.5,N
1619642455.2,286047001.5,N
1619642475.0,286047002.5,N
1619642476.0,286047002.5,N
1619642495.8,286046998.6,N
1619642515.6,286046999.0,N
1619642535.5,286046998.8,N
1619642555.3,286046996.9,N
1619642575.1,286046999.3,N
1619642595.9,286047000.1,N
1619642615.7,286047001.2,N
1619642635.6,286046996.8,N
1619642655.4,286046997.4,N
1619642675.2,286046995.3,N
1619642695.1,286046997.2,N
1619642696.0,286046997.2,N
1619642715.8,286047001.1,N
1619642735.6,286046996.9,N
1619642755.5,286047000.2,N
1619642775.3,286047000.8,N
1619642795.2,286047001.0,N
1619642815.9,286047000.5,N
1619642835.7,286046998.8,N
1619642855.6,286046996.5,N
1619642875.4,286046999.0,N
1619642895.2,286046995.0,N
1619642915.1,286046997.4,N
1619642916.0,286046997.4,N
1619642935.8,286047000.1,N
1619642955.7,286047001.2,N
1619642975.5,286047002.4,N
1619642995.3,286047000.8,N
1619643015.2,286046998.8,N
1619643035.0,286046997.0,N
1619643035.9,286046997.0,N
1619643055.8,286046997.7,N
1619643075.6,286046996.6,N
1619643095.4,286047000.7,N
1619643115.3,286046999.1,N
1619643135.1,286047002.8,N
1619643155.8,286047000.2,N
1619643175.7,286046999.9,N
1619643195.5,286047001.6,N
1619643215.4,286047002.1,N
1619643235.2,286047000.7,N
1619643255.0,286047000.7,N
1619643255.9,286047000.7,N
1619643275.8,286047001.2,N
1619643295.6,286046996.9,N
1619643315.5,286046997.0,N
1619643335.3,286046997.2,N
1619643355.1,286046997.2,N
1619643375.9,286046997.9,N
1619643395.7,286046995.5,N
1619643415.5,286046993.6,Y
1619643435.4,286046996.5,P
1619643455.2,286046999.5,N
1619643475.1,286046999.1,N
1619643476.0,286046999.1,N
1619643495.8,286046998.5,N
1619643515.6,286047001.0,N
1619643535.5,286047000.2,N
1619643555.3,286047000.2,N
1619643575.2,286047002.3,N
1619643595.9,286047002.5,N
